GW0980 Weather Reports


Display with metric or nautical units.
time (UTC)temp
F
wind
direction
speed
MPH
gust
MPH
rain 1hr
in
rain 24hr
in
rain mn
in
humidity
%
barometer
mb
20260508081554 48 261 6.0 11.0 0.00 0.00 0.00 84 1017.8
20260508080041 48 302 4.0 14.0 0.00 0.00 0.00 83 1017.8
20260508074538 48 274 8.0 13.0 0.00 0.00 0.00 85 1017.6
20260508073048 47 279 5.0 10.0 0.00 0.00 0.00 85 1017.6
20260508071541 47 284 5.0 10.0 0.00 0.00 0.00 85 1017.8
20260508070043 47 279 4.0 9.0 0.00 0.00 0.00 85 1017.7
20260508064543 48 295 4.0 10.0 0.00 0.00 0.00 84 1017.6
20260508063039 48 288 3.0 9.0 0.00 0.00 0.00 83 1017.6
20260508061546 49 272 4.0 9.0 0.00 0.00 0.00 83 1017.8
20260508060058 49 300 4.0 10.0 0.00 0.00 0.00 82 1017.8
20260508054622 49 311 5.0 8.0 0.00 0.00 0.00 81 1017.8
20260508053050 50 274 4.0 8.0 0.00 0.00 0.00 80 1017.9
20260508051544 50 258 3.0 7.0 0.00 0.00 0.00 79 1017.9
20260508050049 51 273 2.0 8.0 0.00 0.00 0.00 78 1017.7
20260508044545 51 275 5.0 11.0 0.00 0.00 0.00 78 1017.5
20260508043052 52 300 6.0 14.0 0.00 0.00 0.00 76 1017.7
20260508041545 52 276 6.0 11.0 0.00 0.00 0.00 75 1017.7
20260508040045 53 317 5.0 13.0 0.00 0.00 0.00 74 1017.6
20260508034547 54 268 4.0 10.0 0.00 0.00 0.00 71 1017.5
20260508033041 56 269 5.0 9.0 0.00 0.00 0.00 69 1017.3
20260508031548 57 285 4.0 7.0 0.00 0.00 0.00 66 1017.0
20260508030046 58 281 4.0 8.0 0.00 0.00 0.00 62 1016.9
20260508024552 60 272 5.0 10.0 0.00 0.00 0.00 58 1016.8
20260508023048 61 304 4.0 11.0 0.00 0.00 0.00 55 1016.7
20260508021545 61 279 5.0 10.0 0.00 0.00 0.00 54 1016.8
20260508020038 62 293 7.0 16.0 0.00 0.00 0.00 54 1016.6
20260508014539 63 269 8.0 12.0 0.00 0.00 0.00 55 1016.7
20260508013044 64 282 7.0 11.0 0.00 0.00 0.00 56 1016.7
20260508011542 65 276 5.0 11.0 0.00 0.00 0.00 57 1016.7
20260508010048 65 316 9.0 14.0 0.00 0.00 0.00 56 1017.0
20260508004541 66 278 6.0 16.0 0.00 0.00 0.00 55 1017.0
20260508003048 67 285 4.0 9.0 0.00 0.00 0.00 55 1017.0
20260508001537 67 283 5.0 10.0 0.00 0.00 0.00 54 1016.8
20260508000038 68 276 6.0 11.0 0.00 0.00 0.00 53 1017.0
20260507234542 68 249 5.0 9.0 0.00 0.00 0.00 54 1017.2
20260507233038 69 278 4.0 12.0 0.00 0.00 0.00 53 1017.2
20260507231543 69 274 4.0 7.0 0.00 0.00 0.00 53 1017.3
20260507230041 71 183 0.0 2.0 0.00 0.00 0.00 54 1017.4
20260507224546 70 189 0.0 5.0 0.00 0.00 0.00 54 1017.7
20260507223042 71 160 0.0 3.0 0.00 0.00 0.00 53 1017.8
20260507221541 71 156 0.0 4.0 0.00 0.00 0.00 52 1017.9
20260507220039 71 0 0.0 5.0 0.00 0.00 0.00 51 1018.3
20260507214545 70 0 0.0 2.0 0.00 0.00 0.00 54 1018.7
20260507213037 70 0 0.0 3.0 0.00 0.00 0.00 52 1018.8
20260507211543 70 0 0.0 3.0 0.00 0.00 0.00 53 1018.8
20260507210044 69 0 1.0 6.0 0.00 0.00 0.00 53 1018.9
20260507204542 69 22 1.0 6.0 0.00 0.00 0.00 54 1019.1
20260507203040 69 0 0.0 6.0 0.00 0.00 0.00 54 1019.3
20260507201542 68 307 1.0 3.0 0.00 0.00 0.00 55 1019.4
20260507200045 68 0 0.0 4.0 0.00 0.00 0.00 55 1019.5
20260507194547 67 128 0.0 5.0 0.00 0.00 0.00 57 1019.7
20260507193042 66 86 0.0 5.0 0.00 0.00 0.00 58 1019.8
20260507191538 66 0 0.0 4.0 0.00 0.00 0.00 57 1019.8
20260507190038 65 150 0.0 6.0 0.00 0.00 0.00 59 1020.0
20260507184538 64 0 0.0 3.0 0.00 0.00 0.00 60 1020.2
20260507183049 63 25 0.0 3.0 0.00 0.00 0.00 60 1020.3
20260507181544 62 105 1.0 3.0 0.00 0.00 0.00 63 1020.4
20260507180052 60 0 0.0 3.0 0.00 0.00 0.00 68 1020.4
20260507174538 58 0 0.0 0.0 0.00 0.00 0.00 70 1020.6
20260507173042 58 0 0.0 1.0 0.00 0.00 0.00 71 1020.8
20260507171600 57 0 0.0 1.0 0.00 0.00 0.00 72 1020.8
20260507170047 56 0 0.0 1.0 0.00 0.00 0.00 74 1020.7
20260507164547 56 299 0.0 1.0 0.00 0.00 0.00 74 1020.7
20260507163048 56 0 0.0 2.0 0.00 0.00 0.00 76 1020.7
20260507161543 55 138 0.0 2.0 0.00 0.00 0.00 79 1020.9
20260507160046 55 0 0.0 1.0 0.00 0.00 0.00 78 1020.8
20260507154546 54 0 0.0 1.0 0.00 0.00 0.00 80 1020.9
20260507153045 53 0 0.0 1.0 0.00 0.00 0.00 83 1020.9
20260507151544 52 299 0.0 2.0 0.00 0.00 0.00 83 1021.0
20260507150038 52 0 0.0 2.0 0.00 0.00 0.00 83 1021.1
20260507144551 52 298 1.0 3.0 0.00 0.00 0.00 83 1021.0
20260507143042 51 285 1.0 4.0 0.00 0.00 0.00 83 1021.0
20260507141543 51 302 1.0 6.0 0.00 0.00 0.00 83 1020.9
20260507140053 51 285 1.0 2.0 0.00 0.00 0.00 84 1020.7
20260507134543 51 278 0.0 2.0 0.00 0.00 0.00 84 1020.7
20260507133042 51 0 0.0 1.0 0.00 0.00 0.00 85 1020.5
20260507131538 51 273 0.0 1.0 0.00 0.00 0.00 85 1020.6
20260507130049 51 292 1.0 4.0 0.00 0.00 0.00 85 1020.7
20260507124600 51 278 2.0 5.0 0.00 0.00 0.00 85 1020.7
20260507123043 51 266 1.0 2.0 0.00 0.00 0.00 85 1020.8
20260507121543 51 0 0.0 3.0 0.00 0.00 0.00 85 1020.9
20260507120043 51 298 0.0 2.0 0.00 0.00 0.00 85 1020.9
20260507114558 51 290 0.0 2.0 0.00 0.00 0.00 84 1021.0
20260507113040 51 280 2.0 5.0 0.00 0.00 0.00 84 1021.3
20260507111545 51 284 2.0 4.0 0.00 0.00 0.00 83 1021.1
20260507110047 52 278 2.0 5.0 0.00 0.00 0.00 83 1021.2
20260507104550 52 282 2.0 5.0 0.00 0.00 0.00 84 1021.3
20260507103041 52 273 2.0 7.0 0.00 0.00 0.00 84 1021.3
20260507101539 52 272 2.0 5.0 0.00 0.00 0.00 84 1021.5
20260507100048 52 278 1.0 6.0 0.00 0.00 0.00 84 1021.4
20260507094537 52 273 2.0 5.0 0.00 0.00 0.00 83 1021.5
20260507093044 52 278 2.0 6.0 0.00 0.00 0.00 83 1021.7
20260507091544 52 276 2.0 6.0 0.00 0.00 0.00 83 1021.8
20260507090246 52 282 2.0 8.0 0.00 0.00 0.00 83 1021.9
20260507084542 52 282 3.0 6.0 0.00 0.00 0.00 82 1021.9
20260507083038 52 256 4.0 5.0 0.00 0.00 0.00 82 1021.9